Regional Weather Roundup
Issued by NWS

Home | Current Version | Previous Version | Graphics & Text | Print | Product List | Glossary Off
Versions: 1 2 3 4 5 6 7 8 9 10 11 12 13 14 15 16 17 18 19 20 21 22 23 24 25 26 27

000
ASUS43 KDMX 240307
RWRIA

WEATHER ROUNDUP FOR IOWA
NATIONAL WEATHER SERVICE DES MOINES IA
1000 PM CDT THU OCT 23 2014

NOTE: "FAIR" INDICATES FEW OR NO CLOUDS BELOW 12,000 FEET WITH NO
SIGNIFICANT WEATHER AND/OR OBSTRUCTIONS TO VISIBILITY.

* - THESE STATIONS ARE NOT NWS STATIONS...THUS NOT UNDER NWS
QUALITY CONTROL.  THEY ALSO DO NOT REPORT WEATHER SUCH
AS PRECIPITATION OR FOG.

IAZ001>003-012>014-020>022-031>034-043>046-240400-
   NORTHWEST IOWA

CITY           SKY/WX    TMP DP  RH WIND       PRES   REMARKS
CARROLL *      CLEAR     46  43  87 CALM      30.02F
CHEROKEE *     PTCLDY    48  48 100 CALM      29.99F
DENISON *      CLEAR     48  46  93 E3        30.00F
LE MARS *      CLEAR     55  46  71 S8        29.98S
ORANGE CITY *  CLEAR     57  45  62 S6        29.98S
SHELDON *      CLEAR     54  45  71 S10       29.97S
SIOUX CITY     PTCLDY    53  46  77 SE7       29.98F
SPENCER        CLEAR     47  42  83 S7        29.99F
STORM LAKE *   CLEAR     52  43  71 S8        30.01F
$$

IAZ055>058-069>071-079>083-090>094-240400-
   SOUTHWEST IOWA

CITY           SKY/WX    TMP DP  RH WIND       PRES   REMARKS
ATLANTIC *     CLEAR     46  45  93 CALM      30.03F
AUDUBON *      CLEAR     45  39  81 CALM      30.04F
CLARINDA *     CLEAR     48  48 100 CALM      30.06R
COUNCIL BLFS * CLEAR     57  50  77 SE6       30.01F
CRESTON *      CLEAR     54  52  94 CALM      30.06S
HARLAN  *      CLEAR     48  45  87 CALM      30.06F
LAMONI         CLEAR     55  54  96 S8        30.07R FOG
RED OAK *      CLEAR     50  48  93 CALM      30.04S
SHENANDOAH *   CLEAR     50  48  93 CALM      30.04S
$$

IAZ047>049-059>061-072>074-084-240400-
   CENTRAL IOWA

CITY           SKY/WX    TMP DP  RH WIND       PRES   REMARKS
AMES           CLEAR     49  47  93 S3        30.04S FOG
ANKENY *       FOG       50  50 100 CALM      30.04S VSB 0
CHARITON *     FOG       52  52 100 SE6       30.06R VSB 0
DES MOINES     CLEAR     56  54  93 S7        30.05R FOG
GRINNELL*      CLEAR     52  52 100 SW6       30.06R FOG
KNOXVILLE *    CLEAR     54  52  94 S7        30.05R FOG
MARSHALLTOWN   CLEAR     51  50  96 S6        30.04S FOG
PELLA *        FOG       54  54 100 CALM      30.07R VSB 1/2
PERRY *          N/A     50  45  81 S5        30.04S
$$

IAZ004>006-015-016-023>025-035-036-240400-
   NORTH CENTRAL IOWA

CITY           SKY/WX    TMP DP  RH WIND       PRES   REMARKS
ALGONA *       CLEAR     50  43  76 S7        30.01S
CLARION *      CLEAR     48  46  93 S6        30.02S
ESTHERVILLE    CLEAR     46  40  79 S9        29.99F
FORT DODGE *   CLEAR     46  43  87 S5        30.02F
MASON CITY     CLEAR     47  46  97 S8        30.03S
FOREST CITY *  CLEAR     45  45 100 E5        30.01S
IOWA FALLS *     N/A     52  50  93 S8        30.04F
$$

IAZ007>011-017>019-026>030-037>042-050>054-066-240400-
   NORTHEAST IOWA

CITY           SKY/WX    TMP DP  RH WIND       PRES   REMARKS
CEDAR RAPIDS   FOG       45  45 100 CALM      30.05S VSB 1/4
CHARLES CITY * FOG       46  46 100 SE5       30.04S VSB 0
CLINTON *      CLOUDY    52  48  87 CALM      30.08S
DECORAH *      CLOUDY    50  50 100 SW5       30.03S FOG
DUBUQUE        CLOUDY    50  50 100 CALM      30.06S
MONTICELLO *   CLOUDY    50  50 100 CALM      30.06S
OELWEIN *      FOG       43  43 100 E5        30.05S VSB 0
WATERLOO       FOG       44  44 100 SE5       30.04R VSB 1/4
$$

IAZ064-065-067-068-078-240400-
   EAST CENTRAL IOWA

CITY           SKY/WX    TMP DP  RH WIND       PRES   REMARKS
DAVENPORT      CLOUDY    56  48  74 W5        30.06R
IOWA CITY      FOG       47  47 100 CALM      30.07S VSB 1/4
MT. PLEASANT * MOCLDY    52  50  93 CALM      30.07S
MUSCATINE *    MOCLDY    57  50  77 CALM      30.06S
QUAD CITIES    CLOUDY    57  48  72 CALM      30.06R
$$

IAZ062-063-075>077-085>089-095>099-240400-
   SOUTHEAST IOWA

CITY           SKY/WX    TMP DP  RH WIND       PRES   REMARKS
BURLINGTON     CLOUDY    55  52  89 SW5       30.06S
FAIRFIELD *      N/A     48  46  93 SW3       30.06S
FORT MADISON * CLOUDY    55  54  94 S3        30.07S
KEOKUK *       CLOUDY    55  52  88 SW6       30.06S
OSKALOOSA *    FOG       46  46 100 SW3       30.06S VSB<1/4
CENTERVILLE *  FOG       45  45 100 S3        30.08R VSB 1/2
OTTUMWA        FOG       46  45  96 SW3       30.06R VSB 1/4
WASHINGTON *   FOG       50  50 100 CALM      30.06S VSB 0
$$

ABBREVIATIONS USED IN REMARKS
   TC - TEMPERATURES IN CELSIUS
  WCI - WIND CHILL INDEX
   HX - HEAT INDEX
  VSB - VISIBILITY
$$




USA.gov is the U.S. government's official web portal to all federal, state and local government web resources and services.